GFSNGP_sfc_rhum_102.txt.gz
RH
39 41 41 42 41 39 38 40 55 35 38 34 37 46 50 74 78 76 78 85 86 89 88 87 89 90 90 92 91 89 90 83 81 74 70 68 70 68 67 68 67 65 68 69
39 37 37 40 32 26 28 37 43 41 43 43 72 70 86 87 84 86 83 91 92 92 88 88 89 89 89 90 93 90 91 93 87 83 84 83 76 75 75 72 66 66 67 69
44 34 33 36 32 33 34 34 44 60 56 65 90 91 95 94 93 91 92 91 95 93 88 88 89 89 90 88 86 88 87 85 84 87 89 93 93 88 79 76 73 70 68 66
45 44 37 35 35 33 34 46 62 67 81 79 88 94 96 98 98 95 96 93 98 97 93 89 81 77 85 84 84 83 83 81 82 82 84 86 87 91 94 94 96 93 93 90
51 40 42 52 54 54 53 54 71 86 87 76 83 79 99 100 100 100 100 97 95 98 98 91 86 81 74 77 79 78 82 83 84 85 86 88 90 92 92 91 92 93 91 91
53 50 54 63 48 44 47 62 70 77 93 91 87 98 92 100 100 100 99 89 80 77 82 93 90 78 75 75 75 79 83 82 78 83 83 84 87 90 89 87 88 86 89 91
64 62 56 64 47 46 57 87 88 83 87 86 92 98 100 100 100 100 98 88 78 73 71 74 72 81 83 76 76 68 73 77 75 69 76 79 79 80 83 86 86 90 91 92
62 69 76 91 50 73 95 94 94 91 81 88 91 98 95 100 98 94 94 64 60 64 68 67 68 71 78 82 78 74 69 70 70 72 70 71 76 78 78 81 85 88 91 92
86 96 99 98 97 91 85 94 97 96 95 89 94 96 97 96 89 84 77 70 58 61 64 64 65 70 78 79 70 73 76 71 72 70 67 70 75 76 76 74 80 83 84 87
98 98 96 97 92 91 82 88 83 84 78 70 74 80 87 80 76 69 67 58 56 55 57 62 62 66 73 74 67 68 70 70 75 76 73 70 69 74 79 80 82 82 85 89
100 95 84 80 88 87 85 76 71 70 74 72 67 67 67 68 64 61 59 56 55 56 56 56 56 62 64 66 68 68 71 70 70 70 71 76 85 87 84 92 87 88 91 90
94 100 91 95 89 82 80 83 76 66 57 54 53 56 56 58 57 55 57 57 56 57 57 55 56 60 62 62 63 71 74 74 78 76 72 66 68 79 86 88 85 85 86 87
93 95 98 99 96 85 85 76 54 52 51 53 52 51 53 57 58 61 55 55 57 58 57 57 61 66 69 70 68 74 77 77 72 72 72 73 76 79 85 86 83 87 84 84
93 95 92 76 76 69 61 55 54 50 50 50 50 49 52 53 54 56 57 54 54 56 59 60 65 81 81 75 75 83 89 90 90 91 89 88 86 86 84 85 89 91 85 85
83 82 83 79 61 53 51 52 56 54 55 56 52 53 52 56 60 62 57 52 52 56 62 67 75 84 82 81 82 86 80 83 85 86 86 85 84 84 83 83 84 84 81 80
73 73 75 72 56 53 52 53 57 62 60 58 58 58 57 56 58 62 63 65 68 76 76 85 80 85 80 76 73 73 79 81 79 80 81 83 82 82 82 82 83 85 85 86
59 59 61 63 62 59 61 60 62 64 62 62 68 63 59 62 64 68 72 73 79 85 81 84 88 85 85 86 81 78 78 80 78 78 81 81 81 82 80 81 82 83 88 86
52 54 55 58 60 60 60 60 60 64 72 74 78 83 88 88 85 85 85 81 79 79 84 86 84 85 86 85 83 78 78 78 78 80 79 82 80 78 81 80 78 78 79 75
53 57 58 58 58 59 62 67 71 73 79 82 86 90 89 88 86 86 81 80 79 78 84 81 78 79 83 85 76 76 78 79 76 76 77 79 82 77 79 78 76 75 70 72
57 58 58 59 57 60 70 72 74 82 84 84 86 86 86 88 86 83 78 85 84 84 79 79 73 72 72 73 70 65 76 78 72 79 81 76 80 82 78 71 71 77 80 79
78 78 82 85 89 89 89 88 87 89 88 84 78 84 85 84 84 83 70 69 78 78 72 66 64 60 53 57 53 74 77 79 79 77 77 80 79 76 79 79 78 79 80 79
86 89 90 89 89 91 89 87 87 88 86 87 88 85 83 78 79 79 83 77 63 75 60 60 60 76 64 64 61 76 70 72 76 76 78 79 80 80 80 79 80 80 80 80
87 86 87 88 86 88 87 86 86 82 84 84 84 79 75 70 67 68 68 66 58 70 58 70 77 80 75 78 78 78 76 76 78 79 80 81 80 80 78 78 79 79 79 78
86 84 87 86 85 78 81 84 77 80 85 81 85 87 73 71 75 58 58 71 72 78 79 79 80 79 72 79 79 79 78 78 78 79 76 77 80 79 78 79 78 78 79 77
83 85 86 86 78 70 77 78 74 74 70 65 67 61 62 59 76 70 73 72 72 67 73 85 81 76 77 78 78 78 78 79 80 78 78 79 78 79 79 78 79 78 79 78
80 68 68 76 72 65 63 62 66 62 62 71 69 78 77 72 69 68 72 78 70 72 72 78 79 78 78 75 77 77 76 71 75 74 78 76 76 75 77 75 77 77 78 78
75 78 67 64 58 59 60 60 68 69 74 80 75 76 70 76 77 74 84 76 76 77 78 79 79 77 77 79 76 75 76 75 82 75 76 77 78 78 78 77 77 77 78 80

GFSNGP_sfc_rhum_105.txt.gz
RH
50 40 39 43 46 42 48 40 47 38 44 60 62 78 84 79 79 78 76 77 77 75 86 86 86 88 89 94 92 90 90 92 93 89 80 66 61 69 72 73 72 69 72 74
40 32 33 38 29 24 23 27 33 30 65 52 56 61 81 92 92 85 87 86 83 84 88 90 86 88 88 90 92 88 90 95 92 85 76 77 73 75 76 74 70 73 73 74
46 27 26 35 32 28 27 52 57 87 80 56 70 87 93 94 96 94 93 93 99 99 98 95 92 89 91 90 87 89 90 89 89 89 91 93 85 79 76 80 76 74 75 75
42 38 42 39 29 28 46 57 61 75 87 93 92 94 95 98 96 97 98 98 100 100 99 96 93 90 89 87 88 87 90 90 89 88 90 90 90 93 94 93 94 92 93 89
44 36 39 49 40 43 44 84 56 68 89 93 93 82 90 97 100 100 100 99 100 100 100 98 95 90 88 87 88 88 94 95 92 90 89 90 92 94 93 92 93 93 91 91
44 40 67 76 46 37 37 89 71 67 79 82 79 99 94 100 100 100 100 97 97 95 82 98 99 90 92 95 86 95 99 96 88 90 91 92 92 94 94 94 96 90 91 92
54 50 68 91 66 47 76 97 86 73 71 75 89 97 99 100 100 100 100 62 56 60 65 67 78 95 93 89 97 96 88 89 82 82 88 87 90 93 95 98 99 100 97 97
56 57 86 92 54 84 97 95 94 88 79 81 82 90 90 100 100 92 97 79 51 55 61 62 62 70 88 90 82 88 93 82 79 80 77 76 81 83 81 85 89 91 93 94
88 94 97 88 89 91 76 81 84 85 80 79 85 89 93 87 71 61 52 53 51 47 52 56 57 61 74 76 73 76 76 74 81 86 70 68 81 84 82 80 84 87 87 90
90 91 85 80 72 73 70 77 73 72 68 63 67 65 66 61 56 51 49 49 46 47 49 54 56 58 62 65 63 66 70 74 73 81 82 86 81 82 87 88 84 87 88 92
96 86 77 72 74 77 77 68 61 53 55 56 53 53 52 53 50 48 47 47 48 51 52 52 53 59 60 59 64 64 68 70 72 71 69 74 84 89 87 94 92 91 94 94
98 98 86 87 75 70 71 70 59 50 47 44 45 46 45 48 47 46 49 48 48 50 52 53 55 62 64 64 63 69 72 72 80 77 74 69 70 80 85 89 86 86 86 87
93 84 94 94 80 71 69 59 47 45 43 44 43 44 45 48 50 52 47 49 51 55 56 56 63 70 72 72 74 75 77 76 74 73 73 75 76 79 87 88 82 82 82 80
77 77 84 76 72 63 56 47 46 42 43 45 44 43 47 49 50 51 51 49 49 53 59 61 66 81 81 80 75 89 91 88 88 88 87 86 85 86 85 86 90 91 83 83
72 68 76 76 60 52 43 43 47 48 49 51 48 49 49 52 55 57 54 51 50 55 61 66 73 84 81 85 91 84 81 87 89 88 86 87 84 84 83 83 85 87 87 80
61 63 64 59 53 48 45 47 51 56 55 54 53 52 51 51 54 58 60 62 68 76 74 85 79 83 78 75 81 77 79 86 87 86 87 85 84 84 83 85 85 86 85 86
56 57 55 56 55 53 55 55 56 58 56 58 62 61 55 55 59 65 69 69 74 78 75 80 85 82 82 84 91 81 82 80 84 79 81 83 86 86 86 86 85 84 87 84
45 48 48 51 54 54 55 55 55 59 67 70 75 80 84 84 82 82 81 76 74 76 77 79 78 77 80 84 89 80 78 78 79 81 80 84 84 83 85 86 85 83 78 70
46 51 52 51 52 53 56 62 67 69 77 80 83 86 85 85 82 80 76 77 76 77 80 75 72 70 73 76 76 72 77 79 76 78 81 84 87 85 86 83 76 73 67 69
51 50 50 52 52 55 64 67 69 78 80 80 79 79 79 81 81 80 75 85 79 79 74 70 67 65 63 60 60 57 74 78 72 78 80 80 84 80 74 68 67 73 77 75
70 71 78 82 88 87 86 84 84 85 81 80 76 81 80 78 78 80 71 66 76 75 65 59 60 61 48 57 47 68 72 72 73 72 76 78 76 72 75 75 75 76 77 76
82 86 87 86 85 87 84 82 83 82 80 81 82 82 84 74 76 81 78 74 59 74 57 57 58 72 62 71 57 70 64 67 70 73 75 75 76 76 76 75 76 76 76 76
83 82 82 83 82 82 81 80 80 79 80 79 77 77 72 67 62 65 70 64 55 64 56 68 72 74 80 74 74 74 70 70 72 74 75 76 76 75 74 75 74 74 75 73
80 79 81 80 80 75 81 80 74 77 80 80 81 79 73 68 76 53 56 72 63 77 76 74 77 75 78 76 76 74 74 74 74 75 70 69 75 74 73 74 72 73 73 73
79 80 80 81 73 75 71 75 70 74 69 59 61 55 57 53 72 66 69 71 65 67 76 81 74 76 75 76 74 75 75 76 76 76 74 74 73 73 73 72 73 74 74 73
76 63 63 71 68 57 52 49 53 50 50 60 62 73 72 68 62 65 66 74 63 66 70 74 75 74 77 72 74 72 72 68 72 70 75 71 70 70 72 70 72 72 73 73
68 66 57 54 48 48 50 52 62 62 70 73 71 70 61 68 72 70 75 74 73 72 73 77 75 75 71 74 72 70 70 71 76 70 73 74 72 73 72 72 73 73 73 74

GFSNGP_sfc_rhum_108.txt.gz
RH
90 55 38 54 47 40 48 37 50 66 85 78 79 86 88 84 79 82 84 84 82 83 86 83 87 87 86 88 89 90 93 96 96 94 90 86 84 83 85 83 80 80 83 84
97 65 58 82 30 24 48 57 66 91 97 70 70 70 84 85 88 93 94 94 91 91 89 91 87 91 88 89 89 88 90 93 92 95 93 92 87 86 89 85 83 83 82 86
48 30 37 51 40 57 56 60 71 94 94 78 88 90 94 94 93 97 98 98 99 99 98 95 93 92 94 90 87 88 90 89 90 92 93 95 93 90 92 91 88 90 90 87
51 44 84 61 46 51 65 64 59 77 93 93 95 96 95 99 97 98 99 99 100 100 99 100 97 93 91 87 88 90 90 90 89 89 92 92 92 94 95 94 95 94 92 88
59 49 59 57 60 68 72 89 70 72 69 94 98 92 96 98 100 100 100 100 100 99 100 96 97 94 89 88 90 91 96 95 93 92 91 92 94 94 93 94 94 93 92 92
57 50 81 84 65 52 50 95 81 68 76 75 84 97 96 99 100 100 100 65 65 67 69 90 97 94 92 98 94 98 99 97 96 95 94 96 98 99 94 94 95 92 94 94
65 68 83 78 62 52 77 98 95 79 78 83 93 98 100 100 100 100 99 87 51 56 61 63 73 87 94 95 99 100 99 100 98 98 97 97 99 100 97 98 100 100 99 97
77 83 89 76 60 80 98 99 95 86 81 83 86 89 91 99 96 72 71 54 47 51 57 59 60 66 82 95 95 94 94 96 98 98 95 98 100 99 98 98 99 98 97 98
84 94 88 79 88 84 75 86 84 78 72 76 80 82 83 73 58 51 48 48 46 48 53 57 59 62 70 74 76 86 93 91 92 90 93 96 95 94 94 90 91 91 92 95
89 91 84 79 72 68 68 72 64 60 58 56 60 57 58 55 52 49 47 48 48 50 54 59 60 63 67 67 67 71 81 89 88 89 88 89 88 91 93 96 94 92 92 94
90 84 76 74 74 70 68 58 52 47 48 50 48 50 49 52 50 48 48 48 51 55 59 61 62 67 67 68 68 72 75 80 85 79 82 84 90 91 90 96 94 94 96 96
93 100 84 87 70 64 65 60 51 48 46 43 44 47 46 51 49 47 51 51 54 58 62 64 66 70 76 72 71 77 84 87 95 91 86 78 81 88 82 85 85 86 88 92
91 86 91 87 73 60 56 50 43 44 44 46 44 46 47 51 51 53 50 52 56 62 64 65 71 76 77 83 80 84 86 92 89 89 90 95 94 89 94 88 81 84 85 85
78 77 81 70 69 56 50 44 43 42 45 47 47 46 50 52 54 56 58 56 56 60 65 67 71 84 86 88 78 88 94 90 93 96 96 95 95 95 94 93 94 96 82 81
70 67 72 64 57 48 40 41 45 50 52 53 50 53 53 57 62 63 61 59 58 63 69 72 76 88 86 84 95 89 86 92 94 94 93 93 93 94 94 93 94 95 95 94
58 60 56 52 46 45 46 48 54 57 57 58 59 59 55 56 60 63 64 68 71 80 76 89 81 90 79 82 91 87 86 89 89 91 92 91 91 93 92 92 92 93 93 95
58 59 54 56 57 56 57 58 59 61 61 63 67 68 64 62 65 69 72 71 83 84 78 82 92 84 85 88 93 92 91 90 94 90 93 92 93 93 92 90 90 92 93 90
46 49 50 53 57 57 57 58 59 63 71 73 79 86 91 91 86 86 87 83 87 89 85 86 86 86 87 86 86 88 90 91 88 92 91 93 93 92 93 93 93 90 89 86
47 52 53 52 54 56 60 65 70 73 82 85 90 92 91 92 88 88 88 90 88 85 87 83 76 81 79 79 75 78 83 89 84 88 94 89 90 87 95 92 88 88 85 87
53 53 53 55 56 59 68 72 75 83 86 86 90 90 90 92 92 92 92 92 88 86 88 81 76 77 74 74 76 70 82 83 80 88 90 84 94 95 90 85 87 90 91 92
76 81 87 88 92 92 92 92 92 91 92 91 90 92 93 88 88 90 79 87 86 84 82 73 69 71 62 77 65 80 83 84 87 87 88 91 89 87 89 89 89 92 92 92
86 91 92 92 91 92 92 90 89 91 90 90 91 93 94 89 91 91 90 82 71 79 78 70 66 78 76 92 72 82 77 80 84 86 88 89 90 90 90 90 92 92 93 94
88 87 87 91 90 85 87 88 89 89 91 91 89 88 86 79 69 71 80 69 61 75 65 77 81 87 86 91 86 85 85 85 86 87 88 91 89 91 91 90 91 91 93 91
85 83 83 83 86 80 86 85 86 85 89 88 90 90 79 78 85 70 72 80 72 83 86 82 87 88 88 89 88 88 87 89 90 92 87 85 90 90 91 91 91 90 92 92
84 82 82 88 84 78 74 78 73 78 71 65 65 66 64 58 80 76 79 78 77 75 85 84 84 83 91 88 87 89 87 93 90 90 88 88 90 91 91 92 92 92 92 91
78 73 72 76 78 59 53 52 55 56 57 68 74 87 77 76 71 73 82 84 77 74 80 84 89 88 87 84 86 87 88 82 89 91 91 91 91 90 91 88 89 91 92 95
72 71 60 57 50 47 53 57 67 70 76 89 84 82 69 77 79 78 80 84 86 85 86 88 86 90 85 88 84 84 86 84 92 90 89 89 90 91 92 90 90 92 92 92

GFSNGP_sfc_rhum_111.txt.gz
RH
92 76 92 100 95 94 83 67 97 98 94 95 90 91 89 83 88 92 93 93 94 94 94 89 90 87 86 87 88 86 87 90 93 93 97 96 90 90 90 90 90 88 92 92
99 79 76 94 63 66 74 94 97 92 98 96 92 80 83 85 82 93 94 95 95 94 94 94 93 91 88 88 89 86 89 90 89 90 91 97 93 92 89 89 89 91 94 92
93 68 61 91 75 74 79 78 82 95 98 93 89 93 95 93 90 96 98 98 98 98 97 96 96 95 94 92 87 88 89 88 88 89 92 94 92 95 97 94 93 96 92 87
73 59 93 95 64 67 85 87 77 84 94 88 92 95 92 96 97 97 99 99 98 98 96 98 95 95 93 92 93 91 92 90 88 90 92 92 92 93 95 94 95 94 94 92
81 93 91 70 68 83 81 96 84 85 90 92 95 87 90 90 99 100 99 96 86 84 92 88 91 90 95 92 95 94 98 96 92 92 93 94 96 97 95 94 95 95 93 93
78 81 96 83 74 63 67 96 94 81 90 93 97 95 95 97 99 99 100 84 71 70 69 82 84 86 88 98 94 97 98 98 94 94 97 98 97 99 98 97 100 95 97 96
92 95 84 87 73 60 80 98 98 95 91 87 93 96 98 99 97 100 93 61 57 63 69 66 69 78 92 92 98 98 98 95 92 98 99 98 98 99 100 100 99 98 97 96
89 88 90 85 70 85 99 99 98 96 90 90 90 91 88 95 84 69 69 55 52 61 66 68 67 72 82 95 90 90 91 92 94 95 96 98 97 99 100 100 98 97 97 97
91 93 97 90 97 96 92 97 91 79 74 73 82 80 77 75 67 60 57 58 55 60 66 69 69 73 85 84 79 87 87 90 92 91 94 95 95 96 96 96 95 96 95 96
95 97 93 88 81 75 69 73 64 60 57 56 61 64 67 64 61 59 58 62 62 65 70 74 72 76 79 82 78 77 89 86 86 88 89 89 90 92 92 95 96 95 94 95
97 90 83 80 79 78 70 62 54 53 56 58 58 60 61 61 59 59 60 62 65 72 74 74 71 76 83 77 76 80 85 90 87 80 81 84 89 92 91 96 95 95 97 97
99 100 90 91 76 70 66 63 58 55 54 52 53 57 57 61 59 58 63 65 69 73 74 73 74 81 83 85 82 84 88 90 94 96 86 82 84 89 85 90 89 90 92 95
97 88 91 88 75 66 63 53 50 53 53 55 55 57 60 65 64 67 70 68 72 76 76 75 77 82 84 88 80 90 94 92 92 92 93 97 91 90 94 90 80 84 86 87
79 79 88 84 74 61 52 48 52 52 54 57 57 58 63 68 69 70 72 70 69 73 76 78 79 89 87 87 92 89 94 97 97 98 98 97 97 96 96 96 97 97 86 86
76 73 74 68 56 50 48 51 58 64 65 68 66 67 68 74 76 77 73 64 66 69 74 82 86 93 84 88 93 97 92 96 97 98 98 98 97 95 94 94 96 96 93 95
64 65 71 63 58 59 61 62 68 73 73 74 74 73 70 70 73 77 79 74 79 90 85 95 89 93 84 83 90 94 96 95 96 97 97 97 97 97 94 94 95 96 95 97
75 77 69 71 71 70 72 74 76 77 76 77 78 77 74 69 73 76 85 89 87 94 88 87 90 93 87 87 87 96 97 98 97 96 96 97 97 98 97 96 96 98 96 93
60 66 66 66 72 72 73 73 74 76 84 82 86 92 95 96 96 96 95 93 93 93 94 92 90 86 87 87 89 96 96 98 96 98 98 96 96 97 97 97 98 96 95 94
62 67 69 68 71 73 77 81 84 85 91 94 96 97 97 98 96 97 96 94 94 98 90 94 81 87 88 85 90 94 94 95 95 93 98 98 95 91 97 97 97 96 96 96
68 74 80 79 72 76 85 85 86 91 96 95 95 96 98 98 99 100 100 96 93 95 96 89 88 86 88 85 96 89 91 94 94 96 97 96 98 99 99 99 98 98 98 99
94 93 95 93 95 95 96 96 95 98 98 98 96 100 100 97 98 99 97 99 93 93 92 86 84 86 83 89 90 94 93 95 96 96 96 96 97 96 98 98 98 98 98 98
95 96 97 97 96 99 98 97 96 98 97 97 99 100 100 97 98 97 95 92 96 92 90 92 88 93 85 99 91 95 94 94 96 96 97 98 96 96 97 97 98 98 98 98
95 96 96 97 96 97 97 95 95 95 96 97 99 94 96 96 97 98 99 90 91 91 95 95 93 95 94 98 97 96 97 97 97 98 99 100 100 99 97 97 98 97 95 98
96 95 95 96 93 94 97 96 93 93 95 95 95 91 95 96 99 95 90 87 84 94 99 92 95 96 93 99 99 99 99 99 99 100 97 96 100 100 100 100 100 98 100 99
93 95 96 96 96 96 94 93 94 96 92 85 88 82 82 90 92 96 94 96 91 92 98 89 92 96 99 98 98 100 100 99 98 99 100 100 100 99 100 100 98 95 96 100
93 95 94 92 94 96 92 91 96 94 94 97 97 97 97 94 94 93 98 98 91 94 96 98 98 97 99 98 97 97 98 97 98 99 100 100 98 99 99 96 97 100 100 100
90 95 94 91 86 88 86 89 94 97 98 98 99 98 91 95 96 93 91 95 97 97 97 96 97 99 98 95 95 97 96 98 99 98 99 97 99 99 100 99 100 99 99 99

GFSNGP_sfc_rhum_114.txt.gz
RH
93 96 94 100 100 99 99 98 93 98 93 94 90 90 94 82 83 89 90 88 87 89 93 94 95 94 86 87 88 85 86 88 91 89 89 93 97 96 93 92 91 89 93 96
99 96 87 97 94 95 98 97 95 87 96 93 92 82 85 88 87 95 95 90 85 86 88 94 95 95 94 88 89 86 87 89 88 88 88 92 93 96 94 93 92 94 95 96
96 98 84 85 97 93 91 93 92 97 98 93 83 86 92 92 93 96 98 86 92 93 94 95 96 95 96 92 86 89 89 87 87 88 90 91 90 92 94 96 96 95 93 90
96 88 87 100 92 74 86 94 89 93 93 90 91 95 92 89 94 97 96 85 88 92 92 90 86 88 95 90 91 91 93 91 89 90 91 91 91 93 96 95 96 96 95 93
96 90 95 73 81 89 85 96 97 92 96 92 92 80 91 92 96 98 96 84 85 83 87 85 85 85 84 88 89 90 96 96 96 93 96 93 98 96 95 96 96 97 94 94
93 85 96 93 79 68 70 93 98 90 90 87 87 94 95 91 96 87 84 74 74 74 75 84 86 82 89 93 90 94 97 97 97 98 98 99 99 99 99 99 99 97 96 96
92 90 90 88 78 68 82 99 99 90 84 86 91 95 95 94 86 82 73 64 65 69 75 74 74 80 89 93 98 91 89 95 96 96 97 98 98 99 100 100 100 100 97 96
86 84 89 92 72 91 99 99 96 90 86 86 90 86 77 85 79 73 76 66 64 71 73 74 74 78 84 93 92 91 85 88 91 93 93 94 95 97 97 98 97 97 97 96
93 94 96 96 98 96 90 88 78 75 76 82 80 79 79 77 70 69 70 72 67 71 73 74 74 78 85 92 81 86 85 87 88 87 91 92 94 94 93 96 96 96 95 95
93 98 94 94 88 72 69 74 68 65 65 65 70 69 71 69 68 68 70 74 71 72 75 78 78 78 83 86 79 81 90 84 82 85 87 88 85 88 92 94 93 93 95 96
96 94 92 92 89 75 70 62 58 58 62 67 66 67 67 68 68 70 73 73 74 76 76 79 78 81 83 85 85 84 86 89 91 82 83 84 90 93 92 97 96 96 97 97
99 92 91 96 80 69 68 68 63 62 63 60 62 66 66 73 75 73 75 74 76 75 75 78 78 80 84 85 86 86 84 89 94 97 91 88 86 90 87 88 88 92 92 94
96 90 91 88 77 64 66 61 58 61 61 66 65 67 70 74 70 72 73 73 75 73 74 75 79 82 82 87 88 89 90 93 95 94 95 96 96 93 96 89 86 88 88 89
82 83 88 84 87 64 58 58 60 61 66 66 68 68 70 72 72 69 71 68 66 68 74 78 81 89 88 86 90 96 96 96 97 98 99 98 99 99 98 98 97 97 91 90
79 74 73 62 59 58 58 61 70 72 71 73 73 74 73 75 79 82 72 65 61 64 76 82 87 90 88 86 92 96 96 97 98 98 97 98 97 97 98 97 97 97 96 90
71 68 65 68 70 67 67 69 75 78 77 76 77 76 74 73 75 80 84 77 79 92 86 93 88 91 82 84 90 93 96 96 96 98 98 97 98 97 97 97 96 96 96 97
81 82 70 73 75 76 79 78 79 80 76 76 78 76 72 70 75 82 88 92 93 96 93 90 95 87 90 91 96 97 98 98 100 97 98 98 98 99 98 97 96 96 97 96
72 68 66 69 78 79 79 75 75 76 86 85 86 92 96 97 97 97 98 92 90 90 94 95 92 90 92 93 95 97 98 97 97 99 97 97 98 98 99 99 98 96 98 96
69 72 74 72 74 77 78 82 85 86 93 95 94 96 99 100 98 98 99 91 96 98 96 93 88 93 94 94 95 95 97 97 98 97 98 98 98 97 98 98 98 98 98 97
78 75 75 78 76 76 86 89 90 93 98 95 100 100 100 100 100 100 100 97 99 98 98 94 92 93 94 94 99 93 96 98 95 96 96 98 100 100 99 98 98 100 100 98
92 92 95 95 97 96 95 94 92 94 98 99 94 100 100 100 100 100 100 99 92 98 92 88 91 92 90 98 93 97 97 98 98 99 98 97 98 98 100 100 100 98 99 99
95 95 96 96 96 100 99 97 95 99 100 100 100 100 100 97 100 98 96 95 96 97 93 93 91 94 93 100 92 99 97 98 99 98 99 100 99 98 98 98 99 100 100 100
95 94 96 97 96 96 98 98 99 96 97 100 100 99 95 96 98 99 98 90 94 95 96 95 94 97 100 100 100 100 100 99 100 100 100 100 100 100 100 100 100 98 100 99
96 95 95 95 97 96 97 96 95 94 95 96 97 94 92 99 100 98 95 94 90 97 100 95 94 97 100 100 100 100 100 100 100 100 99 100 100 100 100 100 100 100 100 100
95 94 96 98 96 95 93 93 95 95 93 88 89 83 82 89 92 95 98 98 100 96 98 99 96 98 100 100 100 100 100 100 100 100 100 100 100 100 100 100 100 100 100 100
93 92 95 92 91 92 93 97 98 97 97 99 97 98 97 97 91 94 98 98 98 96 98 99 100 100 100 100 99 100 100 99 100 100 100 100 100 100 100 99 100 100 100 100
95 95 96 96 88 93 97 94 97 99 99 100 100 99 97 96 96 96 100 99 100 100 100 100 100 100 100 100 98 98 100 100 100 100 100 100 100 100 100 100 100 100 100 100

GFSNGP_sfc_rhum_120.txt.gz
RH
96 97 94 99 99 87 91 96 93 97 94 97 96 96 96 97 94 83 81 90 90 87 87 87 89 83 81 82 82 81 82 84 87 86 85 86 89 88 89 91 91 90 96 96
96 100 90 95 96 97 93 93 94 90 93 96 95 94 92 95 91 85 83 84 84 84 84 87 89 90 80 83 86 83 84 86 84 83 83 87 88 88 88 88 89 91 93 96
94 87 63 80 98 97 91 88 84 83 94 95 94 91 95 94 94 90 85 85 91 93 93 92 92 90 88 80 82 85 87 85 85 84 86 86 86 89 91 93 91 92 92 92
96 95 88 96 98 95 88 93 88 88 94 94 93 96 95 95 95 93 87 86 91 95 93 94 86 87 84 80 80 86 89 87 86 87 86 86 87 90 93 92 94 96 95 94
92 89 95 90 86 92 91 95 92 92 91 90 94 88 92 88 91 93 89 85 88 90 94 90 88 84 82 87 82 85 91 92 91 90 90 89 92 95 93 93 95 96 95 96
92 83 93 91 79 75 86 92 87 87 89 90 88 92 98 94 92 91 83 77 80 81 83 89 91 84 84 91 91 90 91 93 92 92 93 95 95 95 96 96 95 91 92 94
90 88 88 86 90 84 92 98 88 85 88 86 92 98 96 91 92 92 85 75 72 75 82 83 84 85 89 88 95 95 84 87 90 88 92 93 92 92 93 94 92 93 94 96
92 81 91 90 82 87 96 97 88 94 93 88 90 87 88 93 91 84 86 76 72 77 79 80 80 79 86 92 86 83 90 84 88 89 86 89 90 91 92 92 92 92 92 93
92 91 96 87 95 82 80 88 94 93 83 82 85 87 88 90 84 82 80 80 72 76 77 78 80 82 85 87 76 76 78 88 84 84 88 88 87 91 88 88 90 90 91 92
90 96 91 85 78 72 77 86 89 77 77 76 78 78 84 81 80 80 80 77 75 76 81 82 80 78 85 82 73 71 76 82 82 83 84 87 85 85 89 92 87 89 91 93
95 95 91 82 80 75 74 71 71 73 76 79 79 84 85 85 81 78 76 75 72 75 78 81 77 80 84 82 74 70 72 77 82 82 83 83 85 92 91 96 93 94 96 95
96 89 90 90 81 74 74 76 72 75 76 74 75 80 80 85 80 79 72 68 76 72 73 77 74 79 83 84 73 78 77 80 85 87 94 90 89 87 78 83 81 83 87 93
97 92 91 85 79 72 76 73 71 73 74 78 76 75 73 75 71 68 64 63 73 74 70 71 72 81 85 84 81 82 87 87 89 89 91 93 95 95 98 87 76 80 81 82
81 78 83 71 79 69 70 73 73 74 72 72 72 70 72 76 73 72 69 60 61 69 67 71 72 88 90 87 86 94 96 96 98 97 99 98 99 99 99 98 99 96 86 86
80 78 84 73 69 72 68 69 73 76 77 77 71 71 71 79 86 82 75 63 64 69 74 70 79 93 93 92 94 96 93 96 97 98 99 97 97 97 97 97 97 96 92 88
67 68 73 72 74 73 72 73 76 79 78 78 77 73 71 74 82 87 89 85 85 94 88 88 85 94 90 91 93 94 96 97 98 97 98 98 97 97 97 97 97 98 97 98
74 78 75 77 76 75 75 76 77 79 81 84 86 80 76 79 83 80 85 86 91 97 89 84 91 96 95 96 97 98 99 98 99 96 98 99 100 99 100 99 100 100 100 99
71 68 66 70 75 78 78 75 76 79 87 86 86 91 96 96 97 99 98 94 93 93 93 97 95 98 96 98 97 97 98 97 98 100 99 99 98 98 99 99 99 99 100 98
69 72 76 71 75 76 79 83 87 88 88 88 87 95 98 100 98 100 100 99 100 100 94 97 98 98 97 98 97 97 97 97 97 97 98 99 99 98 99 100 100 100 99 98
78 76 75 78 75 77 87 90 90 92 96 93 99 100 100 100 100 100 100 98 98 98 100 96 94 96 97 95 100 97 97 98 97 98 98 98 100 100 100 100 100 100 100 100
89 88 90 92 94 95 94 95 94 97 100 100 95 100 100 100 100 100 100 99 92 96 98 93 95 95 97 98 98 98 99 100 100 100 100 100 100 99 100 100 100 100 100 99
95 94 95 96 95 100 100 99 94 99 99 100 100 100 100 99 100 100 98 95 95 96 98 97 95 97 96 100 94 100 96 98 100 100 100 100 100 100 100 100 100 100 100 100
95 95 96 95 93 94 98 96 96 94 96 100 100 100 97 97 98 99 98 91 92 95 92 98 99 99 100 100 100 100 100 100 100 100 100 100 100 100 100 99 100 100 100 100
96 95 96 94 93 92 91 98 96 95 98 96 96 94 91 98 100 96 96 99 99 98 98 97 100 100 100 100 100 100 100 100 100 100 100 100 100 100 100 100 100 100 100 100
94 95 96 96 93 91 91 92 95 97 92 87 89 86 88 87 93 95 97 98 100 99 98 98 99 100 100 100 100 100 100 100 100 100 100 100 100 100 100 100 100 100 100 100
92 90 91 93 95 95 94 92 97 96 96 98 98 99 98 99 97 96 96 97 98 98 98 98 100 100 100 100 100 100 100 100 100 100 100 100 100 100 100 100 100 100 100 100
96 95 96 99 98 96 97 97 99 99 99 100 99 99 100 100 100 99 99 99 100 100 99 99 100 100 100 100 100 100 99 100 100 100 100 100 100 100 100 100 100 99 100 99